Home   Weather   Osnabrück   Past weeks

Flag for Germany Past Weather in Osnabrück, Lower Saxony, Germany — Yesterday and Last 2 Weeks

Now
46 °F

Passing clouds.


Feels Like: 41 °F
Forecast: 40 / 46 °F
Wind: 10 mph from Southwest

Location: Muenster / Osnabrueck

Current Time: Dec 8, 2016 at 9:13:43 pm

Latest Report: Dec 8, 2016 at 8:50 pm


Visibility: N/A

Pressure: 30.27 "Hg

Humidity: 66%

Dew Point: 36 °F

Location of OsnabrückLocation

Past Weather in Osnabrück — Graph

°F

Osnabrück Temperature Yesterday

Maximum temperature yesterday: 46 °F (at 7:20 pm)
Minimum temperature yesterday: 28 °F (at 12:20 am)
Average temperature yesterday: 37 °F

High & Low Weather Summary for the Past Weeks

 TemperatureHumidityPressure
High50 °F (Dec 8, 12:50 pm)100% (Nov 26, 1:20 am)30.60 "Hg (Nov 26, 1:20 am)
Low18 °F (Nov 29, 7:20 am)42% (Dec 5, 2:50 pm)30.07 "Hg (Nov 26, 3:50 pm)
Average34 °F86%30.31 "Hg
* Reported Nov 23 7:20 pm — Dec 8 7:50 pm, Osnabrück, Weather by CustomWeather, © 2016

Note: Actual official high and low records may vary slightly from our data, if they occured in-between our weather recording intervals... More about our weather records

Advertising

Osnabrück Weather History for the Previous 24 Hours

Scroll right to see more
 ConditionsComfort  
Time TempWeatherWind HumidityBarometerVisibility
7:50 pm
Thu, Dec 8
46 °FPassing clouds.12 mph62%30.30 "HgN/A
7:20 pm46 °FClear.9 mph57%30.30 "Hg10 mi
6:50 pm46 °FPassing clouds.8 mph57%30.30 "HgN/A
6:20 pm46 °FClear.8 mph57%30.27 "Hg10 mi
5:50 pm46 °FPassing clouds.8 mph57%30.30 "HgN/A
5:20 pm46 °FClear.7 mph57%30.27 "Hg10 mi
4:50 pm46 °FPassing clouds.7 mph53%30.27 "HgN/A
4:20 pm48 °FPassing clouds.7 mph50%30.30 "HgN/A
3:50 pm48 °FPassing clouds.8 mph50%30.30 "HgN/A
3:20 pm48 °FSunny.8 mph50%30.30 "Hg10 mi
2:50 pm48 °FPassing clouds.8 mph50%30.30 "HgN/A
2:20 pm48 °FPassing clouds.8 mph50%30.30 "HgN/A
1:50 pm48 °FPassing clouds.8 mph50%30.33 "HgN/A
1:20 pm48 °FPassing clouds.8 mph50%30.30 "HgN/A
12:50 pm50 °FPassing clouds.9 mph47%30.33 "HgN/A
12:20 pm48 °FSunny.13 mph50%30.33 "Hg10 mi
11:50 am48 °FSunny.12 mph50%30.33 "Hg10 mi
11:20 am48 °FSunny.12 mph50%30.33 "Hg10 mi
10:50 am48 °FSunny.14 mph54%30.33 "Hg10 mi
10:20 am48 °FSunny.13 mph54%30.36 "Hg10 mi
9:50 am46 °FPassing clouds.12 mph57%30.36 "HgN/A
9:20 am46 °FSunny.13 mph57%30.36 "Hg10 mi
8:50 am45 °FPassing clouds.10 mph61%30.36 "HgN/A
8:20 am45 °FPassing clouds.9 mph66%30.36 "HgN/A
7:50 am45 °FClear.9 mph66%30.36 "Hg10 mi
7:20 am45 °FClear.9 mph66%30.36 "Hg10 mi
6:50 am45 °FClear.8 mph66%30.36 "Hg10 mi
6:20 am45 °FClear.7 mph66%30.36 "Hg10 mi
5:50 am46 °FPassing clouds.8 mph62%30.36 "HgN/A
5:20 am46 °FPassing clouds.9 mph62%30.36 "HgN/A
4:50 am46 °FClear.9 mph62%30.36 "Hg10 mi
4:20 am46 °FClear.10 mph62%30.36 "Hg10 mi
3:20 am46 °FClear.10 mph62%30.36 "Hg10 mi
2:20 am46 °FClear.9 mph66%30.36 "Hg10 mi
1:50 am46 °FPassing clouds.10 mph66%30.36 "HgN/A
1:20 am46 °FCool.9 mph66%30.36 "HgN/A
12:50 am46 °FPassing clouds.12 mph66%30.36 "HgN/A
12:20 am46 °FPassing clouds.9 mph66%30.36 "HgN/A
11:50 pm
Wed, Dec 7
46 °FPassing clouds.10 mph66%30.39 "HgN/A
11:20 pm46 °FPassing clouds.9 mph66%30.39 "HgN/A
10:50 pm46 °FClear.12 mph66%30.39 "Hg10 mi
10:20 pm46 °FPassing clouds.8 mph66%30.39 "HgN/A
9:50 pm46 °FPassing clouds.8 mph66%30.39 "HgN/A
9:20 pm46 °FPassing clouds.6 mph66%30.39 "HgN/A
Weather by CustomWeather, © 2016

See weather overviewHow to use our weather pages